User: anonymous   Login
Location: Caltech
(34.1382°N, 118.1253°W)
Time: 01:00:48
(UTC-07:00)
Language:

OPAL - Orbit

View from above orbital plane
View from above orbital plane
View from above satellite
View from above satellite

Ground track
Ground track

The orbit data is extracted from the following two-line orbital elements,

1 26063U 00004C   15147.59783431  .00000040  00000-0  33666-4 0  9991
2 26063 100.2203 002.4681 0035802 267.8661 091.8419 14.36539108803465
Epoch (UTC): 27 May 2015 14:20:52
Eccentricity: 0.0035802
inclination: 100.2203°
perigee height: 744 km
apogee height: 795 km
right ascension of ascending node: 2.4681°
argument of perigee: 267.8661°
revolutions per day: 14.36539108
mean anomaly at epoch: 91.8419°
orbit number at epoch: 80346

The dashed part of the orbit path shows where the satellite is in the earth's shadow,  

DLR